DW3733 Luzzi (cosenza) IT current weather conditions

sailwx.info

Wind from 129 at 10 knots gusting 17

Air temperature 13.9° C
Dewpoint -0.9° C

Last reported at 2020-Feb-22 14:08 UTC.
Time now 2020-Feb-22 15:06 UTC

Location: N 39°27' E 016°16'.
View on Google Maps.

See reports from other nearby stations

  
Tides and Currents Weather Stations Pressure Air Temp Water Temp Dewpoint Dewpoint Depression Visibility Wind Speed Wind Dir Waves Ship Positions
date/time (UTC)wind fromknots sea level pressurealtimeterstation pressurevisibilityair tempwater tempwave heightnotes
2020-Feb-22 14:08 129 10 gusting 17 13.9
2020-Feb-22 14:03 048 8 gusting 14 13.9
2020-Feb-22 13:58 007 8 gusting 15 13.9
2020-Feb-22 13:53 045 10 gusting 15 14.4
2020-Feb-22 13:48 090 7 gusting 13 14.4
2020-Feb-22 13:43 072 7 gusting 14 14.4
2020-Feb-22 13:38 087 7 gusting 13 14.4
2020-Feb-22 13:33 090 8 gusting 12 14.4
2020-Feb-22 13:28 087 5 gusting 8 14.4
2020-Feb-22 13:23 090 2 gusting 8 14.4
2020-Feb-22 13:18 135 5 gusting 13 14.4
2020-Feb-22 13:13 087 8 gusting 13 13.9
2020-Feb-22 13:08 045 6 gusting 13 13.9
2020-Feb-22 13:03 052 11 gusting 17 14.4
2020-Feb-22 12:58 050 6 gusting 12 14.4
2020-Feb-22 12:53 174 6 gusting 20 13.9
2020-Feb-22 12:48 090 11 gusting 14 13.9
2020-Feb-22 12:43 045 6 gusting 13 14.4
2020-Feb-22 12:38 090 6 gusting 13 13.9
2020-Feb-22 12:33 090 7 gusting 13 13.9
2020-Feb-22 12:28 093 6 gusting 13 14.4
2020-Feb-22 12:23 051 6 gusting 18 13.9
2020-Feb-22 12:18 090 7 gusting 17 13.9
2020-Feb-22 12:13 084 8 gusting 15 14.4
2020-Feb-22 12:08 129 7 gusting 14 14.4
2020-Feb-22 12:03 005 5 gusting 17 13.9
2020-Feb-22 11:58 087 6 gusting 15 13.9
2020-Feb-22 11:53 045 8 gusting 15 13.9
2020-Feb-22 11:48 090 6 gusting 17 13.9
2020-Feb-22 11:43 045 6 gusting 17 13.9
2020-Feb-22 11:38 045 10 gusting 17 14.4
2020-Feb-22 11:33 090 7 gusting 14 13.9
2020-Feb-22 11:28 084 7 gusting 20 13.9
2020-Feb-22 11:23 097 13 gusting 20 13.3
2020-Feb-22 11:13 152 14 gusting 20 13.3
2020-Feb-22 11:08 090 9 gusting 19 13.3
2020-Feb-22 11:03 085 8 gusting 17 13.3
2020-Feb-22 10:58 090 8 gusting 17 13.3
2020-Feb-22 10:53 076 13 gusting 22 13.3
2020-Feb-22 10:48 129 13 gusting 20 13.3
2020-Feb-22 10:43 052 7 gusting 17 13.3
2020-Feb-22 10:38 086 8 gusting 17 13.3
2020-Feb-22 10:33 049 11 gusting 17 13.3
2020-Feb-22 10:28 090 7 gusting 13 13.9
2020-Feb-22 10:23 088 6 gusting 10 13.9
2020-Feb-22 10:18 011 1 gusting 13 13.3
2020-Feb-22 10:13 040 7 gusting 13 13.3
2020-Feb-22 10:08 13.3
2020-Feb-22 10:03 085 4 gusting 11 13.3
2020-Feb-22 09:58 045 4 gusting 8 13.3
2020-Feb-22 09:48 048 5 gusting 13 12.8
2020-Feb-22 09:43 056 7 gusting 13 12.8
2020-Feb-22 09:38 085 5 gusting 14 12.8
2020-Feb-22 09:33 084 11 gusting 18 12.8
2020-Feb-22 09:28 045 6 gusting 14 12.8
2020-Feb-22 09:23 045 7 gusting 15 12.2
2020-Feb-22 09:18 050 6 gusting 15 12.2
2020-Feb-22 09:13 049 10 gusting 13 12.2
2020-Feb-22 09:08 087 6 gusting 13 12.2
2020-Feb-22 09:03 087 8 gusting 13 12.2
2020-Feb-22 08:58 12.2
2020-Feb-22 08:53 082 5 gusting 11 11.7
2020-Feb-22 08:48 128 4 gusting 13 11.7
2020-Feb-22 08:43 007 7 gusting 18 11.7
2020-Feb-22 08:38 090 6 gusting 13 11.7
2020-Feb-22 08:33 090 5 gusting 11 11.7
2020-Feb-22 08:28 052 5 gusting 10 11.1
2020-Feb-22 08:13 078 0 gusting 11 9.4
2020-Feb-22 08:08 048 0 gusting 7 8.3
2020-Feb-22 08:03 045 6.7
2020-Feb-22 07:58 104 6.1
2020-Feb-22 07:53 227 0 gusting 2 5.6
2020-Feb-22 07:48 004 5.6
2020-Feb-22 07:43 353 5.0
2020-Feb-22 07:38 264 4.4
2020-Feb-22 07:33 229 3.9
2020-Feb-22 07:28 225 3.3
2020-Feb-22 07:23 229 2.8
2020-Feb-22 07:18 266 2.8
2020-Feb-22 07:03 184 1.7
2020-Feb-22 06:53 270 1.7
2020-Feb-22 06:48 141 1.7
2020-Feb-22 06:43 036 1.7
2020-Feb-22 06:38 356 1.7
2020-Feb-22 06:33 265 1.7
2020-Feb-22 06:28 315 1.1
2020-Feb-22 06:23 315 1.1
2020-Feb-22 06:18 320 0.6
2020-Feb-22 06:13 185 1.1
2020-Feb-22 06:08 180 1.1
2020-Feb-22 06:03 225 1.1
2020-Feb-22 05:58 090 1.1
2020-Feb-22 05:53 270 1.1
2020-Feb-22 05:48 311 1.1
2020-Feb-22 05:43 189 1.1
2020-Feb-22 05:38 1.1
2020-Feb-22 05:33 270 1.1
2020-Feb-22 05:28 050 1.1
2020-Feb-22 05:23 184 1.1
2020-Feb-22 05:18 094 1.1
2020-Feb-22 05:13 135 1.7
2020-Feb-22 05:08 309 1.7
2020-Feb-22 05:03 177 0 gusting 0 1.7
2020-Feb-22 04:58 045 1.1
2020-Feb-22 04:53 221 1.1
2020-Feb-22 04:48 090 1.1
2020-Feb-22 04:43 135 1.1
2020-Feb-22 04:38 315 1.1
2020-Feb-22 04:33 135 1.1
2020-Feb-22 04:28 225 1.1
2020-Feb-22 04:23 094 1.1
2020-Feb-22 04:18 131 1.1
2020-Feb-22 04:13 131 1.1
2020-Feb-22 04:08 180 1.1
2020-Feb-22 04:03 270 1.1
2020-Feb-22 03:58 135 1.1
2020-Feb-22 03:53 090 1.1
2020-Feb-22 03:48 094 1.1
2020-Feb-22 03:43 152 1.1
2020-Feb-22 03:38 266 1.7
2020-Feb-22 03:33 270 1.7
2020-Feb-22 03:28 270 1.7
2020-Feb-22 03:23 225 1.7
2020-Feb-22 03:18 265 1.7
2020-Feb-22 03:13 184 1.7
2020-Feb-22 03:08 139 1.7
2020-Feb-22 02:58 180 1.7
2020-Feb-22 02:53 1.7
2020-Feb-22 02:48 315 1.7
2020-Feb-22 02:43 090 1.7
2020-Feb-22 02:38 176 1.7
2020-Feb-22 02:33 180 1.7
2020-Feb-22 02:28 176 1.7
2020-Feb-22 02:23 180 1.7
2020-Feb-22 02:18 086 2.2
2020-Feb-22 02:13 174 2.8
2020-Feb-22 02:08 090 2.8
2020-Feb-22 02:03 266 2.8
2020-Feb-22 01:58 090 2.8
2020-Feb-22 01:53 270 2.8
2020-Feb-22 01:48 045 2.8
2020-Feb-22 01:43 045 2.8
2020-Feb-22 01:38 045 2.2
2020-Feb-22 01:33 270 2.2
2020-Feb-22 01:28 114 2.2
2020-Feb-22 01:23 090 2.8
2020-Feb-22 01:18 090 2.8
2020-Feb-22 01:13 135 2.8
2020-Feb-22 01:08 135 2.8
2020-Feb-22 01:03 180 2.8
2020-Feb-22 00:58 285 2.8
2020-Feb-22 00:53 225 2.8
2020-Feb-22 00:48 270 2.8
2020-Feb-22 00:43 169 2.8
2020-Feb-22 00:38 315 2.8
2020-Feb-22 00:33 135 3.3
2020-Feb-22 00:28 135 3.3
2020-Feb-22 00:23 231 3.3
2020-Feb-22 00:18 135 3.3
2020-Feb-22 00:13 135 3.3
2020-Feb-22 00:08 135 3.3
2020-Feb-22 00:03 135 3.3
2020-Feb-21 23:58 135 3.9
2020-Feb-21 23:53 135 3.9
2020-Feb-21 23:48 135 3.9
2020-Feb-21 23:43 135 3.9
2020-Feb-21 23:38 135 3.3
2020-Feb-21 23:33 131 3.3
2020-Feb-21 23:28 129 3.3
2020-Feb-21 23:23 090 3.3
2020-Feb-21 23:18 135 3.3
2020-Feb-21 23:13 090 3.3
2020-Feb-21 23:08 132 3.9
2020-Feb-21 23:03 092 3.9
2020-Feb-21 22:58 135 4.4
2020-Feb-21 22:53 135 4.4
2020-Feb-21 22:48 094 4.4
2020-Feb-21 22:43 225 4.4
2020-Feb-21 22:38 225 4.4
2020-Feb-21 22:33 143 4.4
2020-Feb-21 22:28 049 5.0
2020-Feb-21 22:23 090 5.0
2020-Feb-21 22:18 204 5.0
2020-Feb-21 22:13 086 4.4
2020-Feb-21 22:08 135 5.0
2020-Feb-21 22:03 225 5.0
2020-Feb-21 21:58 135 5.0
2020-Feb-21 21:53 135 5.6
2020-Feb-21 21:48 090 5.0
2020-Feb-21 21:43 090 5.0
2020-Feb-21 21:38 135 0 gusting 1 5.6
2020-Feb-21 21:33 266 5.6
2020-Feb-21 21:28 320 5.6
2020-Feb-21 21:23 135 5.6
2020-Feb-21 21:18 135 6.1
2020-Feb-21 21:13 090 6.1
2020-Feb-21 21:08 094 6.7
2020-Feb-21 21:03 230 6.7
2020-Feb-21 20:58 045 6.1
2020-Feb-21 20:53 276 5.6
2020-Feb-21 20:48 270 5.6
2020-Feb-21 20:43 121 6.1
2020-Feb-21 20:38 135 6.1
2020-Feb-21 20:33 321 6.1
2020-Feb-21 20:28 176 6.7
2020-Feb-21 20:23 135 6.7
2020-Feb-21 20:18 096 7.2
2020-Feb-21 20:13 356 7.2
2020-Feb-21 20:08 005 6.7
2020-Feb-21 20:03 090 6.7
2020-Feb-21 19:58 171 6.1
2020-Feb-21 19:53 135 6.7
2020-Feb-21 19:48 133 6.7
2020-Feb-21 19:43 135 7.2
2020-Feb-21 19:38 180 7.2
2020-Feb-21 19:33 180 7.2
2020-Feb-21 19:28 135 7.2
2020-Feb-21 19:23 133 7.2
2020-Feb-21 19:18 135 7.2
2020-Feb-21 19:13 090 7.2
2020-Feb-21 19:08 090 7.2
2020-Feb-21 19:03 138 0 gusting 1 7.8
2020-Feb-21 18:58 135 1 gusting 2 7.8
2020-Feb-21 18:53 135 7.8
2020-Feb-21 18:48 005 7.8
2020-Feb-21 18:43 076 0 gusting 2 8.3
2020-Feb-21 18:38 137 1 gusting 2 8.9
2020-Feb-21 18:33 135 1 gusting 2 10.0
2020-Feb-21 18:28 090 0 gusting 1 10.6
2020-Feb-21 18:23 220 0 gusting 1 10.6
2020-Feb-21 18:18 319 0 gusting 1 11.1
2020-Feb-21 18:13 270 0 gusting 0 11.1
2020-Feb-21 18:08 266 0 gusting 1 11.1
2020-Feb-21 18:03 225 0 gusting 2 11.1
2020-Feb-21 17:58 263 2 gusting 2 11.7
2020-Feb-21 17:53 178 0 gusting 4 11.7
2020-Feb-21 17:48 223 11.7
2020-Feb-21 17:43 219 1 gusting 4 11.7
2020-Feb-21 17:38 172 1 gusting 5 11.7
2020-Feb-21 17:33 270 0 gusting 5 11.7
2020-Feb-21 17:28 177 2 gusting 5 11.7
2020-Feb-21 17:23 135 2 gusting 5 11.7
2020-Feb-21 17:18 178 0 gusting 2 11.7
2020-Feb-21 17:13 225 0 gusting 2 11.7
2020-Feb-21 17:08 225 11.7
2020-Feb-21 17:03 259 0 gusting 1 12.2
2020-Feb-21 16:48 180 1 gusting 2 13.3
2020-Feb-21 16:43 225 0 gusting 4 13.3
2020-Feb-21 16:38 225 2 gusting 4 13.3
2020-Feb-21 16:33 274 1 gusting 4 13.9
2020-Feb-21 16:28 231 0 gusting 2 13.9
2020-Feb-21 16:23 265 1 gusting 4 13.9
2020-Feb-21 16:18 230 2 gusting 5 14.4
2020-Feb-21 16:13 266 2 gusting 6 14.4
2020-Feb-21 16:08 225 2 gusting 6 14.4
2020-Feb-21 16:03 180 2 gusting 5 15.0
2020-Feb-21 15:58 256 2 gusting 6 15.0
2020-Feb-21 15:53 219 2 gusting 6 15.0
2020-Feb-21 15:48 225 2 gusting 6 15.0
2020-Feb-21 15:43 260 4 gusting 6 15.6
2020-Feb-21 15:38 312 2 gusting 5 15.6
2020-Feb-21 15:33 220 3 gusting 6 15.6
2020-Feb-21 13:38 274 5 gusting 8 17.8
2020-Feb-21 13:33 225 4 gusting 8 17.8
2020-Feb-21 13:28 311 3 gusting 8 17.8
2020-Feb-21 13:23 262 5 gusting 8 17.8
2020-Feb-21 13:18 225 5 gusting 8 17.8
2020-Feb-21 13:13 225 5 gusting 10 17.8
2020-Feb-21 13:08 308 3 gusting 8 18.3
2020-Feb-21 13:03 229 3 gusting 7 18.3
2020-Feb-21 12:58 210 2 gusting 6 18.3
2020-Feb-21 12:53 225 2 gusting 6 18.3
2020-Feb-21 12:48 227 5 gusting 6 18.3
2020-Feb-21 12:43 190 4 gusting 8 18.3
2020-Feb-21 12:38 343 3 gusting 6 18.3
2020-Feb-21 12:33 266 3 gusting 6 18.3
2020-Feb-21 12:28 225 1 gusting 6 17.8
2020-Feb-21 12:23 225 1 gusting 2 17.8
2020-Feb-21 12:18 028 1 gusting 2 17.8
2020-Feb-21 12:13 304 2 gusting 6 17.8
2020-Feb-21 12:08 047 1 gusting 5 17.8
2020-Feb-21 12:03 353 1 gusting 2 17.8
2020-Feb-21 11:58 319 0 gusting 4 17.2
2020-Feb-21 11:53 348 1 gusting 4 17.2
2020-Feb-21 11:48 180 1 gusting 4 17.8
2020-Feb-21 11:43 265 1 gusting 2 17.2
2020-Feb-21 11:38 17.8
2020-Feb-21 11:33 219 0 gusting 2 17.2
2020-Feb-21 11:28 229 1 gusting 5 17.2
2020-Feb-21 11:23 238 0 gusting 4 16.7
2020-Feb-21 11:18 264 1 gusting 4 16.7
2020-Feb-21 11:13 228 1 gusting 5 16.7
2020-Feb-21 11:08 233 2 gusting 5 16.7
2020-Feb-21 11:03 182 0 gusting 2 16.7
2020-Feb-21 10:58 180 1 gusting 2 16.1
2020-Feb-21 10:53 186 0 gusting 2 15.6
2020-Feb-21 10:48 206 1 gusting 4 15.6
2020-Feb-21 10:43 356 0 gusting 2 15.6
2020-Feb-21 10:38 261 1 gusting 2 15.6
2020-Feb-21 10:33 269 1 gusting 2 15.0
2020-Feb-21 10:28 326 0 gusting 1 14.4
2020-Feb-21 10:23 313 0 gusting 2 14.4
2020-Feb-21 10:18 006 1 gusting 2 13.9
2020-Feb-21 10:13 090 0 gusting 2 13.9
2020-Feb-21 10:08 332 0 gusting 2 13.3
2020-Feb-21 10:03 279 0 gusting 2 13.3
2020-Feb-21 09:58 174 1 gusting 2 12.8
2020-Feb-21 09:53 12.8
2020-Feb-21 09:48 315 0 gusting 2 12.2
2020-Feb-21 09:43 353 0 gusting 1 12.2
2020-Feb-21 09:38 180 0 gusting 2 11.7
2020-Feb-21 09:33 027 0 gusting 1 11.7
2020-Feb-21 09:28 054 0 gusting 0 11.7
2020-Feb-21 09:23 11.1
2020-Feb-21 09:18 356 11.1
2020-Feb-21 09:13 230 10.6
2020-Feb-21 09:08 090 0 gusting 2 10.6
2020-Feb-21 09:03 039 10.0
2020-Feb-21 08:58 284 10.0
2020-Feb-21 08:53 315 10.0
2020-Feb-21 08:48 180 10.0
2020-Feb-21 08:43 103 9.4
2020-Feb-21 08:38 094 9.4
2020-Feb-21 08:33 045 9.4
2020-Feb-21 08:28 184 8.9
2020-Feb-21 08:23 231 8.3
2020-Feb-21 08:18 270 7.8
2020-Feb-21 08:13 286 7.2
2020-Feb-21 08:08 266 7.2
2020-Feb-21 08:03 180 6.7
2020-Feb-21 07:58 240 6.1
2020-Feb-21 07:53 270 6.1
2020-Feb-21 07:48 315 6.1
2020-Feb-21 07:43 5.6
2020-Feb-21 07:38 274 6.1
2020-Feb-21 07:33 310 6.1
2020-Feb-21 07:28 340 5.6
2020-Feb-21 07:23 180 5.0
2020-Feb-21 07:18 180 4.4
2020-Feb-21 07:13 139 3.9
2020-Feb-21 07:08 225 3.3
2020-Feb-21 07:03 090 2.2
2020-Feb-21 06:58 270 2.2
2020-Feb-21 06:53 355 1.7
2020-Feb-21 06:48 180 1.1
2020-Feb-21 06:43 270 0.6
2020-Feb-21 06:38 135 -0.0
2020-Feb-21 06:33 135 -0.6
2020-Feb-21 06:28 139 -0.6
2020-Feb-21 06:23 180 -0.6
2020-Feb-21 06:18 180 -0.6
2020-Feb-21 06:13 180 -0.6
2020-Feb-21 06:08 180 -0.6
2020-Feb-21 06:03 135 -0.6
2020-Feb-21 05:58 090 -0.0
2020-Feb-21 05:53 299 -0.0
2020-Feb-21 05:48 310 -0.0
2020-Feb-21 05:43 090 -0.0
2020-Feb-21 05:38 090 -0.0
2020-Feb-21 05:33 135 -0.0
2020-Feb-21 05:28 135 -0.0
2020-Feb-21 05:23 131 -0.0
2020-Feb-21 05:18 135 -0.0
2020-Feb-21 05:13 135 0.6
2020-Feb-21 05:08 090 0.6
2020-Feb-21 05:03 231 1.1
2020-Feb-21 04:58 270 0.6
2020-Feb-21 04:53 090 1.1
2020-Feb-21 04:48 135 1.1
2020-Feb-21 04:43 351 0.6
2020-Feb-21 04:38 309 0.6
2020-Feb-21 04:33 086 0.6
2020-Feb-21 04:28 221 0.6
2020-Feb-21 04:23 225 0.6
2020-Feb-21 04:18 135 1.1
2020-Feb-21 04:13 225 1.1
2020-Feb-21 04:08 266 0.6
2020-Feb-21 04:03 0.6
2020-Feb-21 03:58 207 0.6
2020-Feb-21 03:53 094 1.1
2020-Feb-21 03:48 310 1.7
2020-Feb-21 03:43 249 1.7
2020-Feb-21 03:38 049 1.7
2020-Feb-21 03:33 135 2.2
2020-Feb-21 03:28 265 2.2
2020-Feb-21 03:23 264 1.7
2020-Feb-21 03:18 221 1.7
2020-Feb-21 03:13 141 1.7
2020-Feb-21 03:08 090 1.7
2020-Feb-21 03:03 180 1.7
2020-Feb-21 02:58 259 1.7
2020-Feb-21 02:53 186 1.7
2020-Feb-21 02:48 175 1.7
2020-Feb-21 02:43 214 2.2
2020-Feb-21 02:38 266 1.7
2020-Feb-21 02:33 184 1.7
2020-Feb-21 02:28 090 1.7
2020-Feb-21 02:23 040 1.7
2020-Feb-21 02:18 270 1.7
2020-Feb-21 02:13 270 1.7
2020-Feb-21 02:08 225 1.7
2020-Feb-21 02:03 135 1.7
2020-Feb-21 01:58 107 2.2
2020-Feb-21 01:53 230 1.7
2020-Feb-21 01:48 311 1.7
2020-Feb-21 01:43 1.7
2020-Feb-21 01:38 096 2.2
2020-Feb-21 01:33 225 2.2
2020-Feb-21 01:28 180 2.2
2020-Feb-21 01:23 090 2.2
2020-Feb-21 01:18 229 1.7
2020-Feb-21 01:13 090 1.7
2020-Feb-21 01:08 186 2.2
2020-Feb-21 01:03 135 2.2
2020-Feb-21 00:58 190 2.8
2020-Feb-21 00:53 274 2.2
2020-Feb-21 00:48 229 2.2
2020-Feb-21 00:43 270 2.2
2020-Feb-21 00:38 135 2.2
2020-Feb-21 00:33 276 1.7
2020-Feb-21 00:28 090 1.7
2020-Feb-21 00:23 180 1.7
2020-Feb-21 00:18 135 2.2
2020-Feb-21 00:13 270 2.2
2020-Feb-21 00:08 096 2.2
2020-Feb-21 00:03 315 2.2
2020-Feb-20 23:58 135 2.2
2020-Feb-20 23:53 135 2.8
2020-Feb-20 23:48 180 2.8
2020-Feb-20 23:43 270 3.3
2020-Feb-20 23:38 229 3.3
2020-Feb-20 23:33 135 3.3
2020-Feb-20 23:28 230 3.3
2020-Feb-20 23:23 176 3.9
2020-Feb-20 23:18 180 3.9
2020-Feb-20 23:13 225 3.9
2020-Feb-20 23:08 270 4.4
2020-Feb-20 23:03 310 4.4
2020-Feb-20 22:58 280 4.4
2020-Feb-20 22:53 004 3.9
2020-Feb-20 22:48 131 3.9
2020-Feb-20 22:43 3.9
2020-Feb-20 22:38 221 3.9
2020-Feb-20 22:33 094 4.4
2020-Feb-20 22:28 085 4.4
2020-Feb-20 22:23 135 5.0
2020-Feb-20 22:18 090 5.0
2020-Feb-20 22:13 094 5.6
2020-Feb-20 22:08 049 5.0
2020-Feb-20 22:03 090 5.6
2020-Feb-20 21:58 258 5.6
2020-Feb-20 21:53 130 6.1
2020-Feb-20 21:48 270 6.1
2020-Feb-20 21:43 152 6.1
2020-Feb-20 21:38 270 6.1
2020-Feb-20 21:33 229 6.1
2020-Feb-20 21:28 221 6.1
2020-Feb-20 21:23 231 6.1
2020-Feb-20 21:18 135 7.2
2020-Feb-20 21:13 266 7.2
2020-Feb-20 21:08 225 7.8
2020-Feb-20 21:03 210 0 gusting 2 8.3
2020-Feb-20 20:58 225 1 gusting 5 8.9
2020-Feb-20 20:53 227 1 gusting 4 8.9
2020-Feb-20 20:48 212 2 gusting 13 8.9
2020-Feb-20 20:43 135 8.3
2020-Feb-20 20:38 049 8.3
2020-Feb-20 20:33 102 1 gusting 5 8.3
2020-Feb-20 20:28 270 7.8
2020-Feb-20 20:23 225 7.8
2020-Feb-20 20:18 135 7.8
2020-Feb-20 20:13 004 7.2
2020-Feb-20 20:08 310 7.2
2020-Feb-20 20:03 095 2 gusting 4 7.8
2020-Feb-20 19:58 229 7.8
2020-Feb-20 19:53 135 0 gusting 2 7.8
2020-Feb-20 19:48 347 2 gusting 5 7.8
2020-Feb-20 19:43 168 1 gusting 4 8.3
2020-Feb-20 19:38 184 0 gusting 2 8.9
2020-Feb-20 19:33 225 1 gusting 2 9.4
2020-Feb-20 19:28 086 0 gusting 2 9.4
2020-Feb-20 19:23 270 1 gusting 5 10.0
2020-Feb-20 19:18 002 1 gusting 5 10.0
2020-Feb-20 19:13 312 0 gusting 1 10.0
2020-Feb-20 19:08 063 1 gusting 8 10.0
2020-Feb-20 19:03 079 2 gusting 8 10.0
2020-Feb-20 18:58 090 6 gusting 10 10.6
2020-Feb-20 18:53 085 6 gusting 11 10.6
2020-Feb-20 18:48 090 7 gusting 13 10.6
2020-Feb-20 18:43 080 5 gusting 11 10.6
2020-Feb-20 18:38 045 6 gusting 11 10.6
2020-Feb-20 18:33 044 5 gusting 11 10.6
2020-Feb-20 18:28 044 4 gusting 6 10.6
2020-Feb-20 18:23 045 0 gusting 4 10.6
2020-Feb-20 18:18 270 10.6
2020-Feb-20 18:13 233 0 gusting 2 10.6
2020-Feb-20 18:08 227 0 gusting 2 10.6
2020-Feb-20 18:03 313 0 gusting 2 10.6
2020-Feb-20 17:58 225 0 gusting 4 11.1
2020-Feb-20 17:53 087 1 gusting 2 11.1
2020-Feb-20 17:48 020 1 gusting 2 11.1
2020-Feb-20 17:43 303 0 gusting 1 11.1
2020-Feb-20 17:38 095 11.7
2020-Feb-20 17:33 040 1 gusting 2 11.7
2020-Feb-20 17:28 274 1 gusting 6 11.7
2020-Feb-20 17:23 052 5 gusting 8 11.7
2020-Feb-20 17:18 086 5 gusting 10 11.7
2020-Feb-20 17:13 090 6 gusting 11 11.7
2020-Feb-20 17:08 090 5 gusting 11 11.7
2020-Feb-20 17:03 042 7 gusting 11 11.7
2020-Feb-20 16:58 077 4 gusting 12 11.7
2020-Feb-20 16:53 087 6 gusting 13 11.7
2020-Feb-20 16:48 130 5 gusting 11 11.7
2020-Feb-20 16:43 117 5 gusting 11 12.2
2020-Feb-20 16:38 049 4 gusting 11 12.2
2020-Feb-20 16:33 110 6 gusting 12 12.2
2020-Feb-20 16:28 045 6 gusting 12 12.2
2020-Feb-20 16:23 090 6 gusting 10 12.8
2020-Feb-20 16:18 085 6 gusting 11 12.8
2020-Feb-20 16:13 051 8 gusting 12 12.8
2020-Feb-20 16:08 053 9 gusting 14 12.8
2020-Feb-20 16:03 090 9 gusting 13 12.8
2020-Feb-20 15:58 108 8 gusting 14 13.3
2020-Feb-20 15:53 090 7 gusting 13 13.3
2020-Feb-20 15:48 049 8 gusting 14 13.3
2020-Feb-20 15:43 079 11 gusting 19 13.3
2020-Feb-20 15:38 045 7 gusting 13 13.9
2020-Feb-20 15:33 047 6 gusting 13 13.9
2020-Feb-20 15:28 085 5 gusting 10 13.9
2020-Feb-20 15:23 090 7 gusting 10 13.9
2020-Feb-20 15:18 083 6 gusting 14 14.4
2020-Feb-20 15:13 085 4 gusting 12 14.4
2020-Feb-20 15:08 094 6 gusting 12 14.4
2020-Feb-20 15:03 096 6 gusting 11 14.4